Location: Newark
(22.3091°N, 72.0172°E)
Time: 12:44:20
(UTC+00:00)

N. Korean satellite - Visible Passes

Search period start: 15 July 2020 00:00
Search period end: 25 July 2020 00:00
Orbit: 453 x 506 km, 97.2° (Epoch: 14 July)

Date Brightness Start Highest point End Pass type
(mag) Time Alt. Az. Time Alt. Az. Time Alt. Az.
16 Jul 9.4 23:53:12 10° ENE 23:55:09 15° E 23:57:07 10° SE visible
20 Jul 8.8 00:08:07 10° NE 00:11:00 25° E 00:13:55 10° SSE visible
20 Jul 9.9 23:44:35 10° E 23:45:07 10° E 23:45:39 10° ESE visible
23 Jul 9.4 23:58:31 10° NE 00:00:58 18° E 00:03:26 10° SE visible
